Location: ?
(35.4554°N, 139.3092°E)
Time: 21:33:24
(UTC+00:00)

Cosmos 1805 - Pass Details

Date: 21 April 2021
Orbit: 524 x 530 km, 82.5° (Epoch: 10 May)

Event Time Altitude Azimuth Distance (km) Brightness Sun altitude
Rises 18:31:10 0° 340° (NNW) 2,673 7.0 -17.9°
Reaches altitude 10° 18:33:31 10° 329° (NNW) 1,778 5.9 -17.4°
Enters shadow 18:36:19 27° 285° (WNW) 1,040 4.3 -16.9°
